When you browse on this site, cookies collect data to enhance your experience and personalize the content and advertising you see.
Visit our Privacy Policy to learn more. By continuing to use the site, you agree to this use of cookies and data.
  • In Hungary
  • List of Countries
  • For 7 days
  • Water Temperature
  • Weather Map
  • News
  • Weather Widgets
  • user-avatar
    Login

    Hourly Weather Goleniów

    Today, 13 November, Wednesday

    Time Temperature Precipitation Wind Pressure Humidity
    00:00 +3°C° 0 mm 3 mps 753 mmHg 88%
    01:00 +4°C° 0 mm 2 mps 752 mmHg 89%
    02:00 +4°C° 0 mm 2 mps 752 mmHg 89%
    03:00 +3°C° 0 mm 3 mps 752 mmHg 89%
    04:00 +4°C° 0 mm 3 mps 752 mmHg 88%
    05:00 +4°C° 0 mm 2 mps 751 mmHg 89%
    06:00 +4°C° 0 mm 2 mps 751 mmHg 89%
    07:00 +4°C° 0 mm 2 mps 751 mmHg 89%
    08:00 +5°C° 0 mm 2 mps 751 mmHg 87%
    09:00 +5°C° 0 mm 2 mps 751 mmHg 86%
    10:00 +5°C° 0 mm 2 mps 751 mmHg 84%
    11:00 +7°C° 0 mm 1 mps 750 mmHg 82%
    12:00 +7°C° 0 mm 1 mps 750 mmHg 80%
    13:00 +8°C° 0 mm 1 mps 750 mmHg 78%
    14:00 +7°C° 0 mm 1 mps 750 mmHg 80%
    15:00 +7°C° 0 mm 1 mps 750 mmHg 82%
    16:00 +7°C° 0 mm 1 mps 750 mmHg 84%
    17:00 +6°C° 0 mm 1 mps 750 mmHg 85%
    18:00 +5°C° 0 mm 2 mps 750 mmHg 86%
    19:00 +5°C° 0 mm 2 mps 750 mmHg 87%
    20:00 +5°C° 0 mm 2 mps 750 mmHg 87%
    21:00 +4°C° 0 mm 2 mps 751 mmHg 87%
    22:00 +4°C° 0 mm 2 mps 751 mmHg 87%
    23:00 +4°C° 0 mm 2 mps 751 mmHg 86%

    Tomorrow, 14 November, Thursday

    Time Temperature Precipitation Wind Pressure Humidity
    00:00 +4°C° 0 mm 2 mps 751 mmHg 86%
    01:00 +4°C° 0 mm 2 mps 751 mmHg 85%
    02:00 +4°C° 0 mm 2 mps 751 mmHg 85%
    03:00 +4°C° 0 mm 2 mps 751 mmHg 85%
    04:00 +4°C° 0 mm 2 mps 751 mmHg 85%
    05:00 +4°C° 0 mm 2 mps 752 mmHg 86%
    06:00 +4°C° 0 mm 2 mps 752 mmHg 87%
    07:00 +3°C° 0 mm 3 mps 753 mmHg 88%
    08:00 +4°C° 0 mm 3 mps 753 mmHg 86%
    09:00 +4°C° 0 mm 3 mps 754 mmHg 85%
    10:00 +4°C° 0 mm 3 mps 754 mmHg 83%
    11:00 +5°C° 0 mm 3 mps 755 mmHg 81%
    12:00 +7°C° 0 mm 3 mps 755 mmHg 78%
    13:00 +7°C° 0 mm 3 mps 756 mmHg 75%
    14:00 +7°C° 0 mm 2 mps 756 mmHg 78%
    15:00 +6°C° 0 mm 2 mps 756 mmHg 81%
    16:00 +5°C° 0 mm 2 mps 756 mmHg 84%
    17:00 +5°C° 0 mm 2 mps 757 mmHg 85%
    18:00 +4°C° 0 mm 2 mps 757 mmHg 87%
    19:00 +2°C° 0 mm 3 mps 758 mmHg 89%
    20:00 +2°C° 0 mm 3 mps 758 mmHg 89%
    21:00 +2°C° 0 mm 3 mps 758 mmHg 89%
    22:00 +2°C° 0 mm 3 mps 758 mmHg 89%
    23:00 +1°C° 0 mm 4 mps 758 mmHg 89%

    Day after tomorrow, 15 November, Friday

    Time Temperature Precipitation Wind Pressure Humidity
    00:00 +1°C° 0 mm 4 mps 758 mmHg 89%
    01:00 +1°C° 0 mm 4 mps 758 mmHg 88%
    02:00 +1°C° 0 mm 5 mps 757 mmHg 87%
    03:00 +2°C° 0 mm 5 mps 757 mmHg 86%
    04:00 +2°C° 0 mm 6 mps 757 mmHg 85%
    05:00 +3°C° 0 mm 6 mps 756 mmHg 85%
    06:00 +3°C° 0 mm 6 mps 756 mmHg 85%
    07:00 +4°C° 0 mm 7 mps 756 mmHg 85%
    08:00 +6°C° 0 mm 7 mps 754 mmHg 87%
    09:00 +8°C° 0 mm 7 mps 754 mmHg 84%
    10:00 +9°C° 0 mm 7 mps 754 mmHg 81%
    11:00 +10°C° 0 mm 7 mps 753 mmHg 75%
    12:00 +13°C° 0 mm 6 mps 753 mmHg 70%
    13:00 +14°C° 0 mm 6 mps 753 mmHg 64%
    14:00 +13°C° 0 mm 6 mps 753 mmHg 65%
    15:00 +13°C° 0 mm 6 mps 753 mmHg 66%
    16:00 +13°C° 0 mm 6 mps 752 mmHg 68%
    17:00 +11°C° 0 mm 6 mps 753 mmHg 70%
    18:00 +11°C° 0 mm 6 mps 753 mmHg 72%
    19:00 +11°C° 0 mm 6 mps 753 mmHg 74%
    20:00 +11°C° 0 mm 6 mps 753 mmHg 75%
    21:00 +11°C° 0 mm 6 mps 753 mmHg 76%
    22:00 +11°C° 0 mm 6 mps 753 mmHg 77%
    23:00 +10°C° 0 mm 5 mps 753 mmHg 79%

    16 November, Saturday

    Time Temperature Precipitation Wind Pressure Humidity
    00:00 +10°C° 0 mm 5 mps 753 mmHg 80%
    01:00 +10°C° 0 mm 5 mps 754 mmHg 81%
    02:00 +10°C° 0 mm 5 mps 753 mmHg 81%
    03:00 +11°C° 0 mm 4 mps 753 mmHg 81%
    04:00 +11°C° 0 mm 4 mps 753 mmHg 80%
    05:00 +10°C° 0 mm 5 mps 753 mmHg 80%
    06:00 +10°C° 0 mm 5 mps 753 mmHg 80%
    07:00 +10°C° 0 mm 6 mps 753 mmHg 79%
    08:00 +10°C° 0 mm 6 mps 754 mmHg 80%
    09:00 +9°C° 0 mm 6 mps 755 mmHg 80%
    10:00 +8°C° 0 mm 6 mps 755 mmHg 81%
    11:00 +7°C° 0 mm 6 mps 756 mmHg 78%
    12:00 +7°C° 0 mm 6 mps 757 mmHg 76%
    13:00 +7°C° 0 mm 6 mps 758 mmHg 73%
    14:00 +6°C° 0 mm 5 mps 758 mmHg 75%
    15:00 +6°C° 0 mm 4 mps 759 mmHg 77%
    16:00 +5°C° 0 mm 3 mps 760 mmHg 79%
    17:00 +5°C° 0 mm 3 mps 760 mmHg 82%
    18:00 +4°C° 0 mm 3 mps 760 mmHg 85%
    19:00 +5°C° 0 mm 2 mps 761 mmHg 88%
    20:00 +4°C° 0 mm 2 mps 761 mmHg 89%
    21:00 +4°C° 0 mm 2 mps 762 mmHg 89%
    22:00 +4°C° 0 mm 2 mps 762 mmHg 90%
    23:00 +4°C° 0 mm 2 mps 762 mmHg 89%

    17 November, Sunday

    Time Temperature Precipitation Wind Pressure Humidity
    00:00 +4°C° 0 mm 2 mps 762 mmHg 88%
    01:00 +4°C° 0 mm 2 mps 762 mmHg 87%
    02:00 +5°C° 0 mm 2 mps 761 mmHg 87%
    03:00 +5°C° 0 mm 2 mps 761 mmHg 87%
    04:00 +5°C° 0 mm 2 mps 761 mmHg 87%
    05:00 +4°C° 1.5 mm 3 mps 760 mmHg 89%
    06:00 +5°C° 1.5 mm 4 mps 760 mmHg 92%
    07:00 +5°C° 1.5 mm 4 mps 759 mmHg 94%
    08:00 +6°C° 1.2 mm 5 mps 759 mmHg 93%
    09:00 +7°C° 1.2 mm 5 mps 758 mmHg 91%
    10:00 +8°C° 1.2 mm 5 mps 758 mmHg 89%
    11:00 +9°C° 0 mm 5 mps 757 mmHg 86%
    12:00 +10°C° 0 mm 5 mps 757 mmHg 84%
    13:00 +12°C° 0 mm 4 mps 756 mmHg 81%
    14:00 +11°C° 0 mm 4 mps 756 mmHg 84%
    15:00 +10°C° 0 mm 4 mps 756 mmHg 86%
    16:00 +10°C° 0 mm 4 mps 755 mmHg 88%
    17:00 +10°C° 0 mm 4 mps 755 mmHg 88%
    18:00 +8°C° 0 mm 4 mps 755 mmHg 88%
    19:00 +8°C° 0 mm 4 mps 756 mmHg 89%
    20:00 +8°C° 0 mm 4 mps 756 mmHg 89%
    21:00 +8°C° 0 mm 4 mps 756 mmHg 90%
    22:00 +8°C° 0 mm 4 mps 756 mmHg 91%
    23:00 +7°C° 0 mm 4 mps 756 mmHg 91%

    18 November, Monday

    Time Temperature Precipitation Wind Pressure Humidity
    00:00 +8°C° 0 mm 3 mps 755 mmHg 92%
    01:00 +8°C° 0 mm 3 mps 755 mmHg 92%
    02:00 +8°C° 0 mm 3 mps 755 mmHg 92%
    03:00 +8°C° 0 mm 3 mps 755 mmHg 91%
    04:00 +8°C° 0 mm 3 mps 754 mmHg 91%
    05:00 +6°C° 0 mm 4 mps 754 mmHg 91%
    06:00 +6°C° 0 mm 4 mps 754 mmHg 90%
    07:00 +6°C° 0 mm 4 mps 754 mmHg 90%
    08:00 +7°C° 0 mm 4 mps 754 mmHg 86%
    09:00 +8°C° 0 mm 4 mps 754 mmHg 83%
    10:00 +9°C° 0 mm 5 mps 754 mmHg 79%
    11:00 +10°C° 0 mm 5 mps 754 mmHg 76%
    12:00 +12°C° 0 mm 5 mps 754 mmHg 74%
    13:00 +13°C° 0 mm 4 mps 754 mmHg 71%
    14:00 +12°C° 0 mm 4 mps 754 mmHg 74%
    15:00 +11°C° 0 mm 4 mps 754 mmHg 77%
    16:00 +10°C° 0 mm 3 mps 755 mmHg 80%
    17:00 +10°C° 0 mm 3 mps 755 mmHg 80%
    18:00 +10°C° 0 mm 4 mps 755 mmHg 80%
    19:00 +10°C° 0 mm 4 mps 755 mmHg 80%
    20:00 +10°C° 0 mm 4 mps 756 mmHg 83%
    21:00 +10°C° 0 mm 4 mps 756 mmHg 86%
    22:00 +8°C° 0 mm 4 mps 757 mmHg 88%
    23:00 +9°C° 0 mm 3 mps 757 mmHg 90%
    Show more